Location: Bühlhof
(48.7849°N, 8.6361°E)
Time: 23:02:52
(UTC+00:00)

NOSS 3-1 (A) - Pass Details

Date: 19 January 2026
Orbit: 613 x 1593 km, 63.4° (Epoch: 10 January)

Event Time Altitude Azimuth Distance (km) Brightness Sun altitude
Rises 19:52:07 0° 316° (NW) 3,792 7.3 -37.2°
Reaches altitude 10° 19:54:33 10° 312° (NW) 2,967 6.6 -37.6°
Enters shadow 20:01:10 57° 249° (WSW) 1,493 4.5 -38.7°
